Hatteras, NC

10:30 PM EDT on August 20, 2017 (GMT -0400)
Mitchell

Weather History for KHSE - March, 2013

Change the Weather History Date:

Monday, March 11, 2013

  Actual Average Record
Temperature  
Mean Temperature 57 °F 50 °F  
Max Temperature 65 °F 57 °F 73 °F (1982)
Min Temperature 48 °F 43 °F 26 °F (1981)
Degree Days  
Heating Degree Days 8 15  
Month to date heating degree days 192 173  
Since 1 July heating degree days 1924 2097  
Cooling Degree Days 0 0  
Month to date cooling degree days 0 0  
Year to date cooling degree days 0 0  
Growing Degree Days 6 (Base 50)    
Moisture  
Dew Point 47 °F    
Average Humidity 73    
Maximum Humidity 89    
Minimum Humidity 56    
Precipitation  
Precipitation T in 0.15 in 2.26 in (1926)
Month to date precipitation 0.24 1.63  
Year to date precipitation 9.97 10.89  
Snow  
Snow 0.00 in - - ()
Month to date snowfall 0.0  
Since 1 July snowfall 0.0  
Snow Depth 0.00 in    
Sea Level Pressure  
Sea Level Pressure 30.18 in    
Wind  
Wind Speed 7 mph (ESE)    
Max Wind Speed 15 mph    
Max Gust Speed 21 mph    
Visibility 8 miles    
Events      
T = Trace of Precipitation, MM = Missing Value Source: NWS Daily Summary

Daily Weather History Graph

Daily Weather History Graph

Search for Another Location

Airport or City:

Trip Planner

Search our weather history database for the weather conditions in past years. The results will help you decide how hot, cold, wet, or windy it might be!

Date:

Astronomy

Mar. 11, 2013 Rise Set
Actual Time 7:18 AM EDT 7:06 PM EDT
Civil Twilight 6:53 AM EDT 7:32 PM EDT
Nautical Twilight 6:23 AM EDT 8:01 PM EDT
Astronomical Twilight 5:54 AM EDT 8:31 PM EDT
Moon 6:51 AM EDT (3/11) 7:14 PM EDT (3/11)
Length of Visible Light 12h 39m
Length of Day
11h 48m
Waning Crescent, 0% of the Moon is Illuminated
Mar 11
Waning Crescent
Mar 11
New
Mar 19
First Quarter
Mar 27
Full
Apr 3
Last Quarter

Hourly Weather History & Observations

Time (EDT) Temp. Dew Point Humidity Pressure Visibility Wind Dir Wind Speed Gust Speed Precip Events Conditions
12:51 AM 48.0 °F 45.0 °F 89% 30.27 in 7.0 mi NE 5.8 mph - N/A   Clear
1:51 AM 48.9 °F 45.0 °F 86% 30.25 in 8.0 mi NE 6.9 mph - N/A   Clear
2:51 AM 48.9 °F 45.0 °F 86% 30.24 in 9.0 mi ENE 6.9 mph - N/A   Clear
3:51 AM 48.9 °F 45.0 °F 86% 30.23 in 9.0 mi NE 4.6 mph - N/A   Clear
4:51 AM 50.0 °F 46.0 °F 86% 30.21 in 10.0 mi NE 5.8 mph - N/A   Clear
5:51 AM 51.1 °F 46.9 °F 86% 30.20 in 10.0 mi East 6.9 mph - N/A   Partly Cloudy
6:51 AM 50.0 °F 46.9 °F 89% 30.22 in 9.0 mi East 5.8 mph - N/A   Clear
7:51 AM 52.0 °F 48.9 °F 89% 30.22 in 9.0 mi East 5.8 mph - N/A   Clear
8:51 AM 57.0 °F 50.0 °F 77% 30.22 in 4.0 mi East 6.9 mph - N/A   Haze
9:51 AM 60.1 °F 50.0 °F 69% 30.24 in 3.0 mi East 8.1 mph - N/A   Haze
10:51 AM 64.0 °F 50.0 °F 60% 30.22 in 6.0 mi East 9.2 mph - N/A   Haze
11:51 AM 61.0 °F 48.9 °F 64% 30.20 in 8.0 mi ESE 8.1 mph - N/A   Mostly Cloudy
12:51 PM 63.0 °F 46.9 °F 56% 30.18 in 10.0 mi ESE 9.2 mph - N/A   Partly Cloudy
1:51 PM 63.0 °F 46.0 °F 54% 30.17 in 8.0 mi SE 5.8 mph - N/A   Clear
2:51 PM 59.0 °F 45.0 °F 60% 30.15 in 6.0 mi SE 6.9 mph - N/A   Haze
3:51 PM 59.0 °F 46.0 °F 62% 30.15 in 8.0 mi SSE 4.6 mph - N/A   Overcast
4:51 PM 59.0 °F 46.0 °F 62% 30.12 in 8.0 mi SE 6.9 mph - N/A   Overcast
5:51 PM 57.0 °F 46.0 °F 67% 30.12 in 6.0 mi SSE 4.6 mph - N/A   Haze
6:51 PM 54.0 °F 46.0 °F 75% 30.11 in 7.0 mi SE 4.6 mph - N/A   Overcast
7:51 PM 55.0 °F 46.9 °F 74% 30.13 in 8.0 mi SW 4.6 mph - N/A   Overcast
8:51 PM 54.0 °F 46.0 °F 75% 30.12 in 7.0 mi SSE 4.6 mph - N/A   Overcast
9:51 PM 54.0 °F 48.0 °F 80% 30.10 in 9.0 mi South 10.4 mph - 0.00 in   Overcast
10:51 PM 55.0 °F 48.0 °F 77% 30.08 in 10.0 mi SE 6.9 mph - N/A   Scattered Clouds
11:51 PM 54.0 °F 48.0 °F 80% 30.06 in 9.0 mi SSE 11.5 mph - N/A   Clear